Preview of NWS' New Version of Forecast
This preview is not operational and should not be used for support decisions.

Regional Weather Roundup (RWR)

Issued by National Weather Service (NWS)

                            
000
ASUS42 KTBW 182016
RWRFL 
FLORIDA REGIONAL WEATHER ROUNDUP
NATIONAL WEATHER SERVICE TAMPA BAY RUSKIN FL
400 PM EDT MON MAR 18 2019

NOTE: "FAIR" INDICATES FEW OR NO CLOUDS BELOW 12,000 FEET WITH NO
SIGNIFICANT WEATHER AND/OR OBSTRUCTIONS TO VISIBILITY.

FLZ001>010-012>015-112-114-115-182100-
PANHANDLE FLORIDA
  
CITY           SKY/WX    TMP DP  RH WIND       PRES   REMARKS
PENSACOLA      FAIR      65  33  30 N10       30.21F                  
PENSACOLA NAS  PTSUNNY   65  32  29 N15G21    30.21F                  
MILTON NAS     CLOUDY    63  33  32 NE12      30.21F                  
CRESTVIEW      FAIR      65  29  25 NE8       30.22F                  
DUKE FIELD     FAIR      64  30  27 N12       30.20F                  
VALPARAISO     CLOUDY    66  28  24 N14       30.19F                  
MARY ESTHER    CLOUDY    65  35  33 NE12      30.19F                  
PANAMA CITY    FAIR      65  30  27 N13G22    30.18S                  
TYNDALL AFB    FAIR      67  29  24 NE9       30.18R                  
APALACHICOLA   FAIR      66  34  30 NE8       30.17F                  

STATION/POSITION SKY/WX   TEMP    WIND        PRES    WAVE   SWELL
                          AIR SEA DIR/SP/G            HT/PER HT/PER
                          (F)     (DEG/KT/KT) (MB)    (FT/S) (FT/S)
30.1N   87.6W                                 1023.1F   3/ 5
29.2N   88.2W                      50/ 17/ 21 1022.4F   6/ 7
PANAMA CITY BEAC           65 65   10/ 13/ 16 1022.8R
TOWER C                    63      40/ 11/ 13 1021.9R

$$
FLZ011-016>038-118-127-128-134-139-239-182100-
NORTH FLORIDA
  
CITY           SKY/WX    TMP DP  RH WIND       PRES   REMARKS
MARIANNA       FAIR      66  32  28 NE12      30.18F                  
TALLAHASSEE    CLOUDY    67  32  27 N13       30.16F                  
PERRY          FAIR      67  33  28 N9        30.16S                  
LIVE OAK       SUNNY     66  32  28 N10       30.15F                  
CROSS CITY     FAIR      68  34  28 N15       30.13F                  
LAKE CITY      FAIR      64  32  29 N9        30.15F                  
GAINESVILLE    FAIR      72  35  25 N10       30.14F                  
WILLISTON        N/A    N/A N/A N/A MISG        N/A                   
PALATKA        FAIR      68  39  34 NE7       30.13S                  
MAYPORT NAS    CLOUDY    64  39  39 NE13      30.15F                  
JACKSONVILLE   PTSUNNY   66  32  28 E6        30.14F                  
JAX NAS        PTSUNNY   67  30  25 NE12      30.15F                  
JAX CECIL      SUNNY    N/A N/A N/A N14       30.14F                  
FERNANDINA BEA FAIR      64  33  31 NE10      30.15F                  
ST AUGUSTINE   FAIR      64  43  46 N16G22    30.15F                  
PALM COAST     SUNNY    N/A N/A N/A N17G25    30.13F                  

STATION/POSITION SKY/WX   TEMP    WIND        PRES    WAVE   SWELL
                          AIR SEA DIR/SP/G            HT/PER HT/PER
                          (F)     (DEG/KT/KT) (MB)    (FT/S) (FT/S)
SHELL POINT      NOT AVBL
KEATON BEACH               66      10/  9/ 13 1020.9F
CEDAR KEY                  67      30/  8/ 11 1019.9F
FERNANDINA                         30/  6/ 10   N/A
30.7N   81.3W                 63                N/A     4/ 6
MAYPORT                    61 64   40/ 12/ 14 1021.2F
31.4N   80.9W              61 62   60/  6/  6 1020.8F   3/ 6   3/ 6
ST AUGUSTINE               61 64  360/ 19/ 21 1020.6F

$$
FLZ040-043>046-052-053-057-058-063-144-182100-
INTERIOR CENTRAL FLORIDA
  
CITY           SKY/WX    TMP DP  RH WIND       PRES   REMARKS
OCALA          FAIR      70  46  42 N8G16     30.11F                  
LEESBURG       PTSUNNY   72  48  42 N13       30.09F                  
SANFORD        CLOUDY    66  50  56 N18       30.09F                  
ORLANDO EXEC   CLOUDY    64  52  64 NE10      30.09F                  
ORLANDO INTL   CLOUDY    63  52  67 NE15      30.09F                  
KISSIMMEE      CLOUDY    64  53  67 N12G17    30.10F                  
WINTER HAVEN   CLOUDY    67  54  63 NE15      30.09F                  
LAKELAND       CLOUDY    68  54  60 NE15      30.07F                  
BARTOW         CLOUDY    68  55  64 NE12      30.07F                  
SEBRING        CLOUDY    70  59  68 N14       30.05R                  
OKEECHOBEE     PTSUNNY   73  63  68 CALM      30.01F                  

$$
FLZ041-047-054-059-064-141-147-182100-
EAST CENTRAL FLORIDA
  
CITY           SKY/WX    TMP DP  RH WIND       PRES   REMARKS
ORMOND BEACH   MOSUNNY   64  50  59 N20G28    30.12F                  
DAYTONA BEACH  CLOUDY    66  51  58 N18G28    30.11F                  
DELAND         CLOUDY    66  48  52 NE12      30.10S                  
NEW SMYRNA BEA PTSUNNY   64  50  59 N14G22    30.11                   
JFK SPACE CTR  CLOUDY    65  56  73 N13G21    30.07F                  
TITUSVILLE     PTSUNNY   68  55  64 N17       30.08F                  
CAPE CANAVERAL DRIZZLE   66  57  72 N13G21    30.06F                  
PATRICK AFB    DRIZZLE   65  62  90 N17G23    30.05F                  
MELBOURNE      CLOUDY    65  60  84 N17       30.05F                  
VERO BEACH     PTSUNNY   70  61  73 N20G29    30.03F                  
FT PIERCE      PTSUNNY   71  61  70 N7G22     30.02F                  
STUART         CLOUDY    73  64  73 N12G20    30.02F                  

STATION/POSITION SKY/WX   TEMP    WIND        PRES    WAVE   SWELL
                          AIR SEA DIR/SP/G            HT/PER HT/PER
                          (F)     (DEG/KT/KT) (MB)    (FT/S) (FT/S)
28.5N   80.2W              69      20/ 12/ 16 1017.8F   5/ 8   3/ 8
28.9N   78.5W              71 74   10/ 16/ 19 1017.1F   6/ 7   3/ 9
TRIDENT PIER               64 68  350/ 14/ 19 1019.2F
28.4N   80.5W                 68                N/A     3/ 7
27.5N   80.2W                 69                N/A     5/ 4

$$
FLZ050-056-061-142-242-148-248-149-249-151-251-155-255-
160-260-182100-
WEST CENTRAL FLORIDA
  
CITY           SKY/WX    TMP DP  RH WIND       PRES   REMARKS
CRYSTAL RIVER  FAIR      72  43  35 NE10G17   30.09F                  
INVERNESS      FAIR      72  50  46 N10       30.09F                  
BROOKSVILLE    FAIR      74  52  46 NE12G20   30.08F                  
CLEARWATER AIR FAIR      70  52  52 N9        30.06F                  
ST PETE CLEARW FAIR      72  55  55 N7        30.06F                  
TAMPA INTL     CLOUDY    73  55  53 N7        30.06F                  
TAMPA EXEC     CLOUDY    72  57  60 NE5       30.06F                  
PLANT CITY     CLOUDY    72  55  56 E13       30.08F                  
MACDILL AFB    PTSUNNY   73  56  54 NE9       30.05F                  
PETER O KNIGHT PTSUNNY   73  59  60 NE7       30.06F                  
ST PETERSBURG  PTSUNNY   72  58  61 NE7       30.04F                  
SARASOTA       PTSUNNY   73  58  59 NE5       30.03F                  
VENICE         FAIR      73  61  64 NE8       30.04F                  

STATION/POSITION SKY/WX   TEMP    WIND        PRES    WAVE   SWELL
                          AIR SEA DIR/SP/G            HT/PER HT/PER
                          (F)     (DEG/KT/KT) (MB)    (FT/S) (FT/S)
27.3N   84.2W                 73                N/A     5/ 6
CLEARWATER BEACH           67 73  340/ 17/ 18 1018.2F
MIDDLE TAMPA BAY           69      10/ 10/ 13 1017.8F
VENICE                     71 73   30/  9/ 11 1017.0F

$$
FLZ066-069-070-075>078-162-262-165-265-182100-
SOUTHWEST FLORIDA AND KEYS
  
CITY           SKY/WX    TMP DP  RH WIND       PRES   REMARKS
PUNTA GORDA    CLOUDY    72  59  63 N10       30.05F                  
FT MYERS       PTSUNNY   74  60  61 VRB7      30.01F                  
SOUTHWEST INTL CLOUDY    74  61  63 N7        30.02S                  
NAPLES         CLOUDY    76  64  66 N7        30.00F                  
MARCO ISLAND   CLOUDY    77  63  61 NE6       30.01F                  
IMMOKALEE      FAIR      75  63  64 NE7       29.99F                  
MARATHON       FAIR      82  67  60 NE7       29.97F                  
KEY WEST NAS   CLOUDY    80  69  69 N15       29.99F                  
KEY WEST INTL  PTSUNNY   78  70  76 N15       29.99F                  

STATION/POSITION SKY/WX   TEMP    WIND        PRES    WAVE   SWELL
                          AIR SEA DIR/SP/G            HT/PER HT/PER
                          (F)     (DEG/KT/KT) (MB)    (FT/S) (FT/S)
NAPLES                        77   20/  9/ 11 1015.8F
26.0N   85.6W              70 80   30/ 17/ 21 1017.1
DRY TORTUGAS               72      40/ 17/ 19 1015.7F
SAND KEY                   74                 1015.5F
SOMBRERO KEY               76                 1014.6F

$$
FLZ067-068-071>074-168-172>174-182100-
SOUTHEAST FLORIDA 
  
CITY           SKY/WX    TMP DP  RH WIND       PRES   REMARKS
W PALM BEACH   PTSUNNY   76  64  66 N12       29.99F                  
BOCA RATON     PTSUNNY   79  64  61 NE7       29.99F                  
FT LAUDER-EXEC PTSUNNY   77  67  71 N6        29.98F                  
FT LAUDERDALE  CLOUDY    78  65  63 N8        29.97F                  
POMPANO BEACH  PTSUNNY   79  65  62 NE9       29.98F                  
PEMBROKE PINES FAIR      79  64  60 N9        29.99F                  
OPA LOCKA      FAIR      79  64  60 N9        29.98F                  
MIAMI          CLOUDY    79  65  62 CALM      29.98F                  
WEST KENDALL   FAIR      79  64  60 N9        29.96F                  
HOMESTEAD      FAIR      77  66  69 NE6       29.96F                  

STATION/POSITION SKY/WX   TEMP    WIND        PRES    WAVE   SWELL
                          AIR SEA DIR/SP/G            HT/PER HT/PER
                          (F)     (DEG/KT/KT) (MB)    (FT/S) (FT/S)
PORT EVERGLADES            76      40/  5/ 11 1015.5F
VIRGINIA KEY               75 79   30/ 10/ 13 1014.5F
LAKE WORTH                 74 78   20/ 16/ 18 1016.5F
FOWEY ROCKS                74 78   30/ 11/ 12 1015.6F
SETTLEMENT POINT           71      10/ 14/ 15 1015.7F

$$